Retour au catalogue

SDA_1668

ActifMilitairePO
NORAD 65978·PAYLOAD·🇺🇸 United States

Lancé Oct 15, 2025 depuis Vandenberg Space Force Base

Loading…

Prochains Passages (prochaines 24 heures)

TLE

FraisSource: Space-Track

Époque: Sep 13, 2026, 22:31 UTC

1 65978U 25230E   26256.93823844  .00000162  00000-0  13489-3 0  9996
2 65978  81.2991 129.2730 0002963 357.3977   2.7164 13.84244219 46101

Suivez SDA_1668 en temps réel avec AllMySat

Download on the App Store